VANGUARD DEB, 61446

Orbit data source: Space-Track

VANGUARD DEB, 61446 is space debris in LEO originally from a launch on Tue, 17 Feb 1959 UTC launched from the Air Force Eastern Test Range (AFETR). Debris objects in space refer to the collection of defunct objects orbiting the Earth. Examples of debris include non-operational satellites, rocket bodies, and fragments generated from explosions, collisions, or faulty payload assembly.

Loading next visibility...
Identifier
61446, 1959-001E
Orbit
LEO
Country
Flag of USUS
Related business
Manufacturer
Unknown
Mission
Spacecraft
Bus & Motor
Unknown
Mass
Unknown
Launch date (UTC)
1959-02-17 (67 years ago)
Launch vehicle
Unknown
Launch site
Air Force Eastern Test Range (AFETR)
Object type
Payload
Rocket body
Debris
Shape & HBR
Unknown shape, 0.1 m
Radar Cross Section
Small (<0.1 m²)

Expand to show TLE details & history
Last TLE update: 1 day ago

TLE from 1 day ago
0 VANGUARD DEB
1 61446U 59001E   25351.61724169  .00001393  00000-0  55654-3 0  9992
2 61446  32.8580 114.6872 1219982  61.5778  36.3121 12.43383119962271
Epoch: 2025-12-17T14:48Z
TLE epoch observation values (Epoch: 2025-12-17T14:48:49.682Z)
Latitude
31.33854°
Longitude
-83.66642°
Altitude
766.466 km
Speed
7.812 km/s
True Right ascension
15h 00m 06s
True Declination
31° 11' 10"
Sunlit
Object was in daylight at epoch
Visualization orbit readout
Latitude
Unknown
Longitude
Unknown
Altitude
Unknown
Speed
Unknown
Apparent Right ascension
Unknown
Apparent Declination
Unknown
Sunlit
N/A
Visualization observer readout
Local Sidereal Time
00:07:50
Azimuth
Unknown
Elevation
Unknown
Doppler factor
Unknown
Orbital elements
Apogee altitude
2,456.065 km
Perigee altitude
534.927 km
Semi-major axis
7,873.633 km
Eccentricity
0.122
Inclination
32.858°
RAAN
114.6872°
Arg. of periapsis
61.5778°
True anomaly
45.70028°
Mean anomaly
36.3121°
Eccentric anomaly
40.88758°
Mean motion
3.10656 °/min
Orbital period
115.88 mins
BSTAR
0.00055654
Loading maneuver chart data...
Computing Atmospheric mass density...
Loading historical data...
Loading historical data...
Loading historical data...
Loading historical data...
Loading historical data...
Loading historical data...
Loading historical data...
Other satellites on launch #1 in the year 1959 (1959-02-17 UTC)

Documentation

Showing up to 5 results
|